Date,TemperatureHighF,TemperatureAvgF,TemperatureLowF,DewpointHighF,DewpointAvgF,DewpointLowF,HumidityHigh,HumidityAvg,HumidityLow,PressureMaxIn,PressureMinIn,WindSpeedMaxMPH,WindSpeedAvgMPH,GustSpeedMaxMPH,PrecipitationSumIn
2013-3-27,62.0,53.5,33.0,38.0,34.1,31.0,92,51,33,0.00,40.00,3,2,29,0.00
2013-3-28,69.0,59.7,46.0,38.0,33.9,29.0,65,40,28,0.00,40.00,3,2,19,0.00
2013-3-29,67.0,50.1,38.0,40.0,36.1,33.0,90,63,29,0.00,40.00,4,2,84,0.00
2013-3-30,73.0,47.5,32.0,39.0,32.8,27.0,98,65,20,0.00,40.00,3,1,9,0.00
2013-3-31,77.0,46.6,28.0,33.0,25.9,8.0,95,57,7,0.00,40.00,2,1,9,0.00
2013-4-1,72.0,48.1,30.0,42.0,33.2,25.0,88,60,34,0.00,40.00,3,1,13,0.00
2013-4-2,74.0,50.2,32.0,40.0,35.3,31.0,97,64,25,0.00,40.00,4,1,31,0.00
2013-4-3,73.0,49.9,32.0,40.0,35.1,31.0,96,63,27,0.00,40.00,5,1,15,0.00
2013-4-4,61.0,47.8,37.0,49.0,39.8,34.0,99,75,49,0.00,40.00,2,1,5,0.02
2013-4-5,59.0,48.3,41.0,48.0,40.4,32.0,100,78,38,0.00,40.00,4,1,12,0.09
2013-4-6,53.0,44.5,39.0,47.0,41.1,37.0,99,89,61,0.00,40.00,5,1,13,0.14
2013-4-7,52.0,42.1,35.0,47.0,40.1,34.0,99,93,57,0.00,40.00,2,1,11,0.81
2013-4-8,56.0,42.1,29.0,34.0,28.5,20.0,99,65,31,0.00,40.00,7,2,20,0.01
2013-4-9,63.0,45.3,33.0,28.0,21.6,15.0,78,45,15,0.00,40.00,4,2,13,0.00
2013-4-10,57.0,43.5,30.0,46.0,30.9,24.0,95,64,38,0.00,40.00,3,1,7,0.01
2013-4-11,64.0,45.6,29.0,38.0,29.6,23.0,98,61,26,0.00,40.00,3,1,37,0.01
2013-4-12,63.0,44.4,27.0,31.0,23.8,11.0,93,54,15,0.00,40.00,4,1,10,0.00
2013-4-13,52.0,44.7,30.0,43.0,26.1,12.0,99,53,21,0.00,40.00,4,2,16,0.04
2013-4-14,50.0,35.4,24.0,27.0,20.8,16.0,83,59,29,0.00,40.00,3,1,13,0.01
2013-4-15,50.0,36.3,28.0,34.0,28.0,23.0,98,74,43,0.00,40.00,3,1,12,0.02
2013-4-16,57.0,40.1,31.0,32.0,22.8,11.0,99,58,20,0.00,40.00,5,2,15,0.02
2013-4-17,54.0,41.2,29.0,16.0,11.3,6.0,57,32,16,0.00,40.00,5,2,13,0.00
2013-4-18,62.0,39.8,23.0,28.0,18.4,13.0,74,46,23,0.00,40.00,4,1,11,0.00
2013-4-19,48.0,42.1,36.0,46.0,37.5,28.0,99,84,64,0.00,40.00,2,0,4,0.13
2013-4-20,60.0,48.2,39.0,43.0,37.5,30.0,99,72,35,0.00,40.00,4,1,11,0.01
2013-4-21,60.0,44.8,30.0,36.0,31.1,24.0,97,64,26,0.00,40.00,4,1,13,0.00
2013-4-22,56.0,45.2,33.0,31.0,20.6,9.0,79,43,16,0.00,40.00,6,2,16,0.00
2013-4-23,56.0,40.6,24.0,23.0,17.6,9.0,80,45,15,0.00,40.00,3,2,9,0.00
2013-4-24,65.0,44.8,25.0,26.0,21.9,15.0,85,48,15,0.00,40.00,4,2,29,0.00
2013-4-25,72.0,48.8,29.0,31.0,26.4,22.0,89,50,17,0.00,40.00,4,1,43,0.00
2013-4-26,78.0,53.0,32.0,38.0,31.6,27.0,91,52,18,0.00,40.00,3,1,15,0.00
2013-4-27,81.0,55.1,34.0,40.0,32.6,23.0,92,51,14,0.00,40.00,3,1,15,0.00
2013-4-28,70.0,55.0,42.0,39.0,32.8,27.0,75,47,23,0.00,40.00,5,2,15,0.00
2013-4-29,64.0,49.2,40.0,41.0,32.8,15.0,79,57,25,0.00,40.00,7,2,21,0.00
2013-4-30,56.0,42.3,27.0,24.0,19.0,15.0,83,42,22,0.00,40.00,6,2,14,0.00
2013-5-1,62.0,41.9,24.0,22.0,16.4,6.0,77,44,11,0.00,40.00,4,1,10,0.00
2013-5-2,71.0,47.8,27.0,28.0,20.7,12.0,81,43,11,0.00,40.00,3,2,22,0.00
2013-5-3,73.0,52.7,33.0,33.0,27.9,25.0,81,44,17,0.00,40.00,4,2,16,0.00
2013-5-4,72.0,56.9,37.0,38.0,30.4,25.0,76,41,20,0.00,40.00,6,2,15,0.00
2013-5-5,78.0,54.3,33.0,40.0,33.7,29.0,90,52,18,0.00,40.00,4,1,13,0.00
2013-5-6,84.0,55.3,36.0,48.0,37.4,30.0,90,59,14,0.00,40.00,3,1,11,0.00
2013-5-7,79.0,55.3,39.0,56.0,43.3,37.0,94,69,24,0.00,40.00,4,2,10,0.01
2013-5-8,84.0,57.2,42.0,59.0,46.3,42.0,99,73,24,0.00,40.00,5,2,131,0.01
2013-5-9,86.0,57.1,41.0,58.0,44.7,40.0,97,70,23,0.00,40.00,3,1,131,0.00
2013-5-10,88.0,61.3,39.0,49.0,38.2,-99.9,98,57,16,0.00,40.00,4,2,23,0.00
2013-5-11,87.0,61.1,41.0,50.0,40.0,-99.9,92,56,17,0.00,40.00,3,1,14,0.00
2013-5-12,88.0,65.5,46.0,48.0,43.0,35.0,89,52,17,0.00,40.00,4,1,12,0.00
2013-5-13,87.0,66.8,45.0,48.0,40.7,25.0,90,49,11,0.00,40.00,6,2,16,0.00
2013-5-14,78.0,62.0,45.0,45.0,39.7,30.0,90,50,22,0.00,40.00,5,2,59,0.00
2013-5-15,79.0,58.3,40.0,42.0,37.4,33.0,86,52,19,0.00,40.00,3,1,114,0.00
2013-5-16,70.0,53.7,49.0,49.0,27.9,-99.9,86,58,32,0.00,40.00,3,1,22,0.00
2013-5-17,61.0,53.2,47.0,49.0,44.2,-99.9,99,78,55,0.00,40.00,2,1,112,0.04
2013-5-18,66.0,52.7,42.0,46.0,39.0,30.0,99,67,28,0.00,40.00,5,1,27,0.01
2013-5-19,66.0,52.1,37.0,42.0,36.6,33.0,93,60,31,0.00,40.00,3,1,39,0.00
2013-5-20,76.0,56.4,35.0,43.0,37.6,33.0,94,56,24,0.00,40.00,4,2,39,0.00
2013-5-21,77.0,58.2,37.0,42.0,36.1,26.0,93,53,16,0.00,40.00,5,2,23,0.00
2013-5-22,54.0,45.7,33.0,37.0,27.3,9.0,86,54,17,0.00,40.00,3,1,22,0.01
2013-5-23,67.0,45.8,24.0,28.0,20.0,8.0,89,47,10,0.00,40.00,5,1,12,0.01
2013-5-24,68.0,50.5,32.0,34.0,28.1,23.0,82,48,21,0.00,40.00,4,1,40,0.00
2013-5-25,72.0,56.9,43.0,39.0,34.2,29.0,77,47,23,0.00,40.00,4,1,29,0.00
2013-5-26,70.0,52.5,41.0,51.0,40.1,33.0,82,64,34,0.00,40.00,3,1,29,0.01
2013-5-27,70.0,53.9,43.0,49.0,41.8,30.0,98,71,26,0.00,40.00,4,1,12,0.01
2013-5-28,59.0,51.6,48.0,52.0,49.3,46.0,99,92,62,0.00,40.00,3,1,9,0.07
2013-5-29,61.0,48.2,41.0,50.0,44.8,41.0,99,89,56,0.00,40.00,3,1,19,0.37
2013-5-30,65.0,49.7,37.0,49.0,39.0,32.0,99,73,34,0.00,40.00,3,1,71,0.01
2013-5-31,75.0,51.6,33.0,39.0,34.4,24.0,98,62,19,0.00,40.00,4,1,9,0.01
2013-6-1,79.0,58.2,35.0,42.0,36.3,30.0,94,53,19,0.00,40.00,3,1,9,0.00
2013-6-2,78.0,60.0,44.0,45.0,38.3,27.0,89,51,18,0.00,40.00,4,1,16,0.00
2013-6-3,78.0,58.5,38.0,40.0,35.7,29.0,88,48,18,0.00,40.00,4,2,11,0.00
2013-6-4,82.0,59.8,38.0,43.0,38.3,33.0,96,53,21,0.00,40.00,4,1,11,0.00
2013-6-5,87.0,64.4,43.0,46.0,41.4,35.0,92,52,17,0.00,40.00,4,1,16,0.00
2013-6-6,89.0,65.3,45.0,49.0,45.4,42.0,91,56,22,0.00,40.00,4,1,26,0.00
2013-6-7,92.0,67.6,48.0,49.0,44.8,34.0,89,52,13,0.00,40.00,4,1,42,0.00
2013-6-8,91.0,68.0,46.0,48.0,41.4,32.0,88,47,15,0.00,40.00,3,2,15,0.00
2013-6-9,91.0,68.1,45.0,49.0,44.2,41.0,88,50,20,0.00,40.00,4,2,15,0.00
2013-6-10,92.0,72.9,52.0,50.0,43.6,31.0,83,42,17,0.00,40.00,4,1,10,0.00
2013-6-11,83.0,66.8,50.0,48.0,42.9,36.0,85,47,19,0.00,40.00,6,2,15,0.00
2013-6-12,82.0,63.9,43.0,46.0,37.8,29.0,91,47,15,0.00,40.00,5,2,26,0.00
2013-6-13,71.0,59.2,49.0,49.0,39.8,30.0,94,52,23,0.00,40.00,3,1,194,0.05
2013-6-14,71.0,53.3,39.0,45.0,39.9,34.0,98,67,26,0.00,40.00,3,1,31,0.62
2013-6-15,83.0,57.5,35.0,45.0,35.5,25.0,97,57,12,0.00,40.00,4,1,9,0.02
2013-6-16,93.0,64.6,41.0,42.0,36.8,21.0,92,49,9,0.00,40.00,3,2,193,0.00
2013-6-17,92.0,64.1,44.0,44.0,39.3,23.0,87,49,9,0.00,40.00,4,1,15,0.00
2013-6-18,88.0,66.7,45.0,45.0,39.6,31.0,86,45,14,0.00,40.00,4,2,11,0.00
2013-6-19,66.0,54.4,45.0,52.0,46.8,40.0,99,79,46,0.00,40.00,5,1,19,0.32
2013-6-20,65.0,48.6,41.0,45.0,42.7,32.0,99,83,32,0.00,40.00,2,0,9,0.29
2013-6-21,66.0,63.6,62.0,44.0,37.6,33.0,52,39,33,0.00,40.00,3,1,173,0.03
2013-6-22,74.0,64.8,42.0,45.0,41.4,39.0,95,46,30,0.00,40.00,5,2,10,0.00
2013-6-23,84.0,60.6,41.0,53.0,43.0,39.0,97,60,23,0.00,40.00,2,1,64,0.00
2013-6-24,70.0,59.5,54.0,58.0,54.9,50.0,99,86,53,0.00,40.00,2,1,7,0.16
2013-6-25,65.0,57.7,53.0,59.0,55.9,53.0,99,94,78,0.00,40.00,2,0,157,0.06
2013-6-26,80.0,65.2,55.0,62.0,56.6,51.0,99,78,38,0.00,40.00,4,1,10,0.39
2013-6-27,95.0,69.4,52.0,58.0,52.6,38.0,99,66,16,0.00,40.00,3,1,16,0.38
2013-6-28,102.0,71.5,51.0,56.0,48.5,35.0,95,56,11,0.00,40.00,3,1,7,0.00
2013-6-29,101.0,76.1,57.0,59.0,54.7,50.0,88,55,19,0.00,40.00,4,1,9,0.00
2013-6-30,103.0,78.0,57.0,62.0,56.0,47.0,94,56,17,0.00,40.00,2,1,9,0.00
2013-7-1,109.0,78.6,60.0,62.0,54.8,41.0,86,53,12,0.00,40.00,3,1,6,0.00
2013-7-2,108.0,82.3,62.0,65.0,57.3,49.0,87,51,17,0.00,40.00,3,1,10,0.00
2013-7-3,102.0,81.4,65.0,62.0,56.4,46.0,80,49,17,0.00,40.00,4,1,11,0.00
2013-7-4,95.0,75.3,58.0,58.0,52.5,43.0,83,51,19,0.00,40.00,3,1,8,0.00
2013-7-5,91.0,71.7,50.0,51.0,47.0,42.0,90,48,20,0.00,40.00,4,2,10,0.00
2013-7-6,95.0,64.3,46.0,47.0,42.8,38.0,86,53,15,0.00,40.00,3,1,41,0.00
2013-7-7,96.0,71.1,49.0,51.0,43.9,28.0,83,47,11,0.00,40.00,3,1,12,0.00
2013-7-8,94.0,63.5,50.0,52.0,44.1,-99.9,82,57,17,0.00,40.00,3,1,12,0.00
2013-7-9,97.0,70.4,48.0,45.0,41.5,31.0,84,44,11,0.00,40.00,3,1,9,0.00
2013-7-10,101.0,76.1,54.0,52.0,39.0,-99.9,69,34,11,0.00,40.00,4,2,12,0.00
2013-7-11,85.0,69.5,58.0,57.0,48.4,41.0,95,52,21,0.00,40.00,3,1,14,0.22
2013-7-12,90.0,65.5,48.0,54.0,47.9,34.0,99,66,15,0.00,40.00,6,1,16,0.22
2013-7-13,88.0,68.4,47.0,48.0,42.9,35.0,89,48,17,0.00,40.00,5,2,28,0.00
2013-7-14,96.0,69.2,47.0,44.0,39.5,25.0,83,44,10,0.00,40.00,3,2,14,0.00
2013-7-15,102.0,71.0,47.0,47.0,39.9,30.0,78,42,8,0.00,40.00,4,1,9,0.00
2013-7-16,104.0,92.8,75.0,59.0,50.0,47.0,58,26,16,0.00,40.00,3,2,10,0.30
2013-7-17,97.0,76.1,58.0,66.0,54.9,29.0,99,62,11,0.00,40.00,3,1,10,0.22
2013-7-18,100.0,77.5,48.0,49.0,41.7,27.0,90,39,9,0.00,40.00,3,2,7,0.00
2013-7-19,103.0,74.3,48.0,49.0,41.1,23.0,84,43,7,0.00,40.00,2,1,8,0.00
2013-7-20,103.0,71.8,52.0,48.0,41.1,-99.9,80,44,8,0.00,40.00,4,1,9,0.00
2013-7-21,101.0,72.8,47.0,46.0,36.4,14.0,81,38,5,0.00,40.00,3,1,11,0.00
2013-7-22,99.0,70.5,46.0,40.0,32.3,14.0,72,35,5,0.00,40.00,4,1,10,0.00
2013-7-23,102.0,70.9,46.0,42.0,35.5,23.0,73,38,6,0.00,40.00,3,1,9,0.00
2013-7-24,96.0,71.3,52.0,50.0,40.9,30.0,74,39,10,0.00,40.00,3,1,13,0.00
2013-7-25,101.0,73.6,54.0,50.0,45.1,30.0,75,44,9,0.00,40.00,3,1,9,0.00
2013-7-26,94.0,70.1,52.0,50.0,45.2,35.0,76,47,13,0.00,40.00,5,1,10,0.00
2013-7-27,95.0,73.1,60.0,55.0,45.1,31.0,70,43,12,0.00,40.00,3,1,9,0.00
2013-7-28,91.0,68.6,47.0,42.0,34.2,22.0,73,37,10,0.00,40.00,4,2,12,0.00
2013-7-29,89.0,65.4,44.0,41.0,34.6,26.0,76,39,11,0.00,40.00,4,1,90,0.00
2013-7-30,94.0,71.8,51.0,45.0,37.6,19.0,68,36,8,0.00,40.00,3,1,11,0.00
2013-7-31,93.0,67.2,47.0,45.0,39.0,32.0,70,40,15,0.00,40.00,3,1,9,0.00
2013-8-1,88.0,71.4,60.0,60.0,45.8,37.0,68,43,18,0.00,40.00,4,2,20,0.02
2013-8-2,85.0,62.9,44.0,45.0,39.3,27.0,91,52,15,0.00,40.00,4,1,11,0.02
2013-8-3,88.0,64.4,42.0,42.0,36.6,29.0,85,45,13,0.00,40.00,4,1,13,0.00
2013-8-4,99.0,68.6,45.0,47.0,36.1,26.0,76,39,9,0.00,40.00,3,1,34,0.00
2013-8-5,99.0,72.0,47.0,43.0,36.6,22.0,68,35,8,0.00,40.00,6,2,14,0.00
2013-8-6,99.0,73.9,51.0,49.0,38.1,25.0,73,36,8,0.00,40.00,3,1,10,0.00
2013-8-7,103.0,72.0,47.0,41.0,36.2,30.0,74,35,9,0.00,40.00,3,1,10,0.00
2013-8-8,102.0,72.9,60.0,59.0,40.4,32.0,77,36,9,0.00,40.00,5,2,17,0.01
2013-8-9,95.0,71.8,52.0,54.0,45.0,28.0,90,48,12,0.00,40.00,4,1,14,0.01
2013-8-10,93.0,74.4,52.0,46.0,40.7,31.0,72,35,12,0.00,40.00,3,2,10,0.00
2013-8-11,93.0,72.2,54.0,45.0,40.6,31.0,63,36,12,0.00,40.00,4,2,8,0.00
2013-8-12,99.0,72.5,53.0,46.0,40.2,30.0,66,38,9,0.00,40.00,3,1,8,0.00
2013-8-13,99.0,75.0,58.0,49.0,38.5,-99.9,57,32,9,0.00,40.00,4,2,12,0.00
2013-8-14,98.0,71.3,50.0,43.0,34.5,-99.9,69,35,6,0.00,40.00,3,1,10,0.00
2013-8-15,103.0,68.1,48.0,39.0,24.2,-99.9,72,30,5,0.00,40.00,4,1,11,0.00
2013-8-16,101.0,72.1,50.0,41.0,32.2,-99.9,60,31,7,0.00,40.00,4,2,13,0.00
2013-8-17,98.0,70.8,48.0,42.0,35.1,-99.9,64,34,10,0.00,40.00,4,2,12,0.00
2013-8-18,100.0,72.7,51.0,46.0,40.7,33.0,68,38,12,0.00,40.00,4,1,10,0.00
2013-8-19,101.0,69.7,51.0,44.0,31.8,-99.9,68,36,9,0.00,40.00,4,2,10,0.00
2013-8-20,101.0,71.7,50.0,44.0,36.5,-99.9,63,36,10,0.00,40.00,4,2,13,0.00
2013-8-21,101.0,72.7,50.0,45.0,39.7,34.0,68,37,11,0.00,40.00,6,2,15,0.00
2013-8-22,96.0,74.9,59.0,53.0,47.1,43.0,66,41,17,0.00,40.00,3,1,11,0.00
2013-8-23,89.0,71.0,57.0,57.0,48.3,34.0,92,52,17,0.00,40.00,4,2,11,0.01
2013-8-24,93.0,64.5,47.0,56.0,40.4,-99.9,89,48,18,0.00,40.00,2,1,14,0.06
2013-8-25,94.0,69.4,50.0,55.0,47.6,31.0,96,57,12,0.00,40.00,6,2,17,0.06
2013-8-26,90.0,68.7,49.0,49.0,44.5,37.0,89,50,17,0.00,40.00,3,1,9,0.00
2013-8-27,89.0,58.8,49.0,48.0,42.2,40.0,77,58,23,0.00,40.00,2,0,6,0.00
2013-8-28,94.0,83.2,66.0,59.0,48.3,40.0,77,33,18,0.00,40.00,3,2,9,0.02
2013-8-29,95.0,72.6,53.0,59.0,50.3,39.0,98,56,16,0.00,40.00,6,2,16,0.03
2013-8-30,96.0,69.5,48.0,47.0,40.6,29.0,83,44,11,0.00,40.00,5,1,13,0.00
2013-8-31,100.0,66.9,46.0,41.0,34.3,-99.9,70,39,9,0.00,40.00,4,1,12,0.00
2013-9-1,99.0,71.0,48.0,43.0,36.5,32.0,64,35,10,0.00,40.00,3,1,8,0.00
2013-9-2,89.0,70.2,57.0,61.0,45.6,40.0,81,44,25,0.00,40.00,3,1,10,0.00
2013-9-3,79.0,66.1,59.0,65.0,59.6,55.0,97,81,55,0.00,40.00,2,0,6,0.05
2013-9-4,94.0,72.2,57.0,64.0,57.6,54.0,99,67,27,0.00,40.00,4,1,11,0.10
2013-9-5,86.0,65.9,57.0,63.0,59.8,57.0,99,83,44,0.00,40.00,3,1,8,1.05
2013-9-6,85.0,64.3,55.0,61.0,52.0,32.0,99,75,18,0.00,40.00,3,1,9,0.50
2013-9-7,87.0,59.2,41.0,46.0,39.9,-99.9,98,62,16,0.00,40.00,3,1,13,0.00
2013-9-8,89.0,61.8,42.0,47.0,43.8,40.0,95,61,21,0.00,40.00,3,1,20,0.00
2013-9-9,90.0,65.8,45.0,48.0,44.8,42.0,92,54,20,0.00,40.00,3,2,13,0.00
2013-9-10,94.0,68.3,46.0,48.0,44.0,38.0,91,50,17,0.00,40.00,3,1,9,0.00
2013-9-11,97.0,68.8,46.0,48.0,43.3,34.0,88,50,13,0.00,40.00,4,1,10,0.00
2013-9-12,88.0,68.1,57.0,61.0,49.4,43.0,98,55,26,0.00,40.00,3,1,8,0.08
2013-9-13,82.0,63.6,56.0,62.0,58.7,54.0,99,87,39,0.00,40.00,3,1,8,0.08
2013-9-14,88.0,63.7,53.0,60.0,53.4,-99.9,99,78,29,0.00,40.00,3,1,8,0.02
2013-9-15,91.0,70.6,57.0,57.0,52.1,46.0,92,60,23,0.00,40.00,4,1,11,0.02
2013-9-16,88.0,68.6,53.0,55.0,46.0,29.0,95,55,13,0.00,40.00,4,2,15,0.01
2013-9-17,73.0,59.6,47.0,46.0,41.6,38.0,76,53,34,0.00,40.00,3,1,16,0.00
2013-9-18,58.0,52.6,43.0,44.0,40.6,36.0,77,64,57,0.00,40.00,1,0,17,0.00
2013-9-19,77.0,50.7,32.0,39.0,33.3,27.0,97,61,16,0.00,40.00,3,1,11,0.00
2013-9-20,88.0,57.4,34.0,37.0,30.4,18.0,90,48,8,0.00,40.00,4,1,12,0.00
2013-9-21,72.0,58.2,46.0,40.0,33.7,-99.9,66,43,25,0.00,40.00,3,1,13,0.00
2013-9-22,64.0,54.9,46.0,44.0,39.9,34.0,78,59,36,0.00,40.00,4,1,30,0.00
2013-9-23,70.0,56.3,45.0,47.0,40.0,36.0,90,59,30,0.00,40.00,3,1,17,0.00
2013-9-24,53.0,46.9,43.0,50.0,43.4,38.0,98,88,68,0.00,40.00,2,0,6,0.87
2013-9-25,49.0,45.4,42.0,47.0,44.0,40.0,99,95,82,0.00,40.00,2,0,6,0.24
2013-9-26,62.0,47.6,40.0,44.0,38.6,31.0,98,77,34,0.00,40.00,4,1,11,0.07
2013-9-27,59.0,44.5,30.0,40.0,33.4,29.0,97,69,36,0.00,40.00,3,1,9,0.01
2013-9-28,60.0,47.8,41.0,51.0,42.9,-99.9,98,87,63,0.00,40.00,2,0,5,0.33
2013-9-29,51.0,48.1,44.0,50.0,47.0,43.0,98,97,94,0.00,40.00,3,1,12,1.85
2013-9-30,63.0,50.8,43.0,47.0,42.4,29.0,97,78,29,0.00,40.00,4,1,15,1.53
2013-10-1,58.0,48.3,40.0,40.0,38.3,37.0,90,70,47,0.00,40.00,2,2,6,0.00
2013-10-2,60.0,42.0,31.0,37.0,32.9,27.0,97,75,29,0.00,40.00,3,1,7,0.00
2013-10-3,54.0,44.1,35.0,41.0,34.3,27.0,96,73,36,0.00,40.00,6,1,16,0.11
2013-10-4,67.0,42.2,28.0,35.0,29.5,26.0,96,69,24,0.00,40.00,3,1,9,0.02
2013-10-5,69.0,42.2,28.0,38.0,31.0,27.0,96,72,24,0.00,40.00,3,1,7,0.00
2013-10-6,76.0,45.1,29.0,38.0,32.9,28.0,97,71,18,0.00,40.00,2,1,7,0.00
2013-10-7,69.0,47.3,32.0,39.0,34.0,27.0,97,67,22,0.00,40.00,3,1,10,0.00
2013-10-8,57.0,43.1,32.0,40.0,33.9,30.0,95,73,38,0.00,40.00,2,1,10,0.00
2013-10-9,67.0,43.2,29.0,39.0,33.3,28.0,97,74,31,0.00,40.00,3,1,9,0.00
2013-10-10,61.0,43.8,30.0,40.0,35.5,29.0,97,76,45,0.00,40.00,3,1,8,0.00
2013-10-11,64.0,41.2,28.0,35.0,30.9,27.0,97,73,27,0.00,40.00,3,1,10,0.00
2013-10-12,61.0,43.6,32.0,36.0,31.4,-99.9,95,68,32,0.00,40.00,2,0,5,0.00
2013-10-13,66.0,45.5,32.0,36.0,32.8,30.0,96,67,30,0.00,40.00,4,1,10,0.00
2013-10-14,67.0,43.3,29.0,35.0,29.5,23.0,96,65,24,0.00,40.00,3,1,11,0.00
2013-10-15,63.0,42.5,27.0,35.0,28.8,26.0,94,64,28,0.00,40.00,3,1,10,0.00
2013-10-16,64.0,40.2,28.0,36.0,30.3,27.0,96,73,29,0.00,40.00,2,1,7,0.00
2013-10-17,69.0,42.3,27.0,36.0,30.1,26.0,96,69,25,0.00,40.00,3,1,10,0.00
2013-10-18,65.0,41.2,27.0,35.0,29.1,26.0,95,68,25,0.00,40.00,4,1,8,0.00
2013-10-19,64.0,39.0,27.0,38.0,29.1,-99.9,96,75,31,0.00,40.00,2,1,6,0.00
2013-10-20,69.0,43.9,28.0,37.0,30.8,27.0,96,69,23,0.00,40.00,5,1,13,0.00
2013-10-21,69.0,46.7,30.0,40.0,33.6,29.0,95,67,26,0.00,40.00,2,1,6,0.00
2013-10-22,71.0,43.0,31.0,42.0,34.5,30.0,96,78,29,0.00,40.00,3,1,6,0.00
2013-10-23,69.0,42.8,29.0,40.0,34.2,28.0,96,77,27,0.00,40.00,3,1,7,0.00
2013-10-24,71.0,43.2,30.0,43.0,34.5,29.0,96,77,26,0.00,40.00,2,1,6,0.00
2013-10-25,71.0,43.0,29.0,40.0,34.2,28.0,96,77,28,0.00,40.00,2,1,6,0.00
2013-10-26,68.0,41.1,29.0,39.0,30.6,-99.9,96,74,27,0.00,40.00,2,1,6,0.00
2013-10-27,58.0,39.7,28.0,42.0,32.0,27.0,96,77,39,0.00,40.00,2,0,5,0.00
2013-10-28,57.0,46.1,38.0,42.0,33.8,30.0,90,65,37,0.00,40.00,5,2,14,0.00
2013-10-29,61.0,42.2,32.0,35.0,32.4,29.0,93,71,36,0.00,40.00,3,1,8,0.00
2013-10-30,47.0,36.0,29.0,36.0,31.0,28.0,95,83,57,0.00,40.00,1,0,4,0.00
2013-10-31,40.0,33.9,27.0,38.0,31.7,26.0,96,92,79,0.00,40.00,1,0,4,0.01
2013-11-1,55.0,39.8,32.0,41.0,35.6,31.0,96,86,54,0.00,40.00,2,0,6,0.01
2013-11-2,43.0,35.0,28.0,41.0,32.2,-99.9,96,92,77,0.00,40.00,1,0,5,0.93
2013-11-3,43.0,33.7,31.0,34.0,30.0,27.0,94,88,55,0.00,40.00,2,0,7,0.00
2013-11-4,41.0,31.9,26.0,32.0,28.6,25.0,94,88,65,0.00,40.00,2,0,5,0.00
2013-11-5,30.0,26.0,19.0,28.0,23.2,17.0,94,90,75,0.00,40.00,1,0,3,0.00
2013-11-6,45.0,34.1,29.0,38.0,31.4,27.0,95,90,69,0.00,40.00,0,0,3,0.00
2013-11-7,35.0,34.1,34.0,33.0,32.1,32.0,94,94,94,0.00,40.00,0,0,2,0.00